Content
SEND FEEDBACK

Daily
Averages
Monthly
Summary
Turkey

GAZIANTEP, TURKEY


Home > Middle East > Turkey
Elevation: 854 meters     Latitude: 37 05N     Longitude: 037 22E

WEATHER
 
SELECT A DAY
Number of Records: 206,776;   Date Range: 7/1/96 - 7/20/14
 
SHARE

PRINT THIS DATA

[ ← Previous Day ]
WEATHER ALMANAC - 16 MARCH, 2013
[ Next Day → ]
[ °F ]   °C
Weather ElementAverageHighLow
Temperature13.1 °C17 °C (1:50 am)5 °C (10:50 pm)
Dewpoint5.5 °C9.4 °C (2:00 pm)0 °C (7:50 pm)
Humidity60.2 %76 % (10:50 pm)37 % (8:00 pm)
Barometer1008.8 hPa1010.2 hPa (9:50 pm)1006.8 hPa (8:00 am)
Wind Speed13 km/h27.8 km/h (11:20 am)
Weather ElementAverage
Visibility6.4 km
Wind DirectionSSW (214 °)

Weather ElementTotal
Precipitation---
Heating Degree Days7.3 (Base 18.3)
Growing Degree Days1 (Base 10)
Averaged from 50 records on 16 March, 2013
WEATHER CONDITIONS BREAKOUT
WIND DIRECTION BREAKOUT
WEATHER BY HOUR - 16 MARCH, 2013
[ °F ]   °C
Local TimeTemperatureDewpointHumidityBarometerVisibilityWind DirectionWind SpeedGust SpeedPrecipitationEventsConditions
12:50 AM16 °C3 °C42 %1009.1 hPa1.9 kmNNE (30°)11.1 km/hMostly Cloudy
1:20 AM16 °C4 °C45 %1008.1 hPa1.9 kmNE (40°)5.6 km/hMostly Cloudy
1:50 AM17 °C4 °C42 %1008.1 hPa1.9 kmENE (70°)7.4 km/hMostly Cloudy
2:20 AM16 °C4 °C45 %1008.1 hPa1.9 kmENE (70°)7.4 km/hMostly Cloudy
2:50 AM15 °C4 °C48 %1008.1 hPa1.9 kmNorth (10°)5.6 km/hMostly Cloudy
3:20 AM15 °C5 °C51 %1008.1 hPa1.9 kmNorth (360°)7.4 km/hMostly Cloudy
3:50 AM14 °C5 °C55 %1007.1 hPa1.9 kmNorth (10°)9.3 km/hMostly Cloudy
4:20 AM13 °C5 °C58 %1007.1 hPa1.9 kmNNW (340°)9.3 km/hMostly Cloudy
4:50 AM14 °C5 °C55 %1007.1 hPa1.9 kmNNW (330°)9.3 km/hMostly Cloudy
5:20 AM12 °C6 °C67 %1008.1 hPa1.9 kmCalmMostly Cloudy
5:50 AM13 °C6 °C63 %1007.1 hPa4 kmNorth (360°)9.3 km/hMostly Cloudy
6:20 AM13 °C6 °C63 %1008.1 hPa4 kmNNW (340°)7.4 km/hMostly Cloudy
6:50 AM14 °C6 °C59 %1008.1 hPa4 kmNorth (360°)7.4 km/hMostly Cloudy
7:20 AM14 °C7 °C63 %1008.1 hPa4 kmNorth (360°)5.6 km/hMostly Cloudy
7:50 AM15 °C8 °C63 %1009.1 hPa4 kmVariable1.9 km/hMostly Cloudy
8:00 AM14.4 °C7.8 °C54 %1006.8 hPa3.2 kmWest (270°)1.9 km/hBlowing Sand
8:20 AM15 °C9 °C67 %1009.1 hPa4 kmSW (220°)1.9 km/hMostly Cloudy
8:50 AM16 °C8 °C59 %1009.1 hPa4 kmVariable1.9 km/hMostly Cloudy
9:20 AM16 °C8 °C59 %1009.1 hPa1.9 kmSSW (210°)7.4 km/hMostly Cloudy
9:50 AM16 °C8 °C59 %1009.1 hPa1.9 kmWSW (240°)16.7 km/hMostly Cloudy
10:20 AM15 °C8 °C63 %1009.1 hPa4 kmWSW (240°)20.4 km/hMostly Cloudy
10:50 AM15 °C8 °C63 %1009.1 hPa4 kmSW (230°)22.2 km/hMostly Cloudy
11:20 AM14 °C8 °C67 %1009.1 hPa4 kmWSW (250°)27.8 km/hMostly Cloudy
11:50 AM14 °C8 °C67 %1009.1 hPa4 kmWSW (240°)20.4 km/hMostly Cloudy
12:20 PM14 °C9 °C72 %1009.1 hPa4 kmWSW (250°)16.7 km/hMostly Cloudy
12:50 PM14 °C9 °C72 %1009.1 hPa6.9 kmWest (260°)16.7 km/hMostly Cloudy
1:20 PM15 °C9 °C67 %1009.1 hPa10 kmWest (260°)16.7 km/hMostly Cloudy
1:50 PM15 °C9 °C67 %1009.1 hPa10 kmWSW (250°)20.4 km/hMostly Cloudy
2:00 PM14.4 °C9.4 °C62 %1007.5 hPa9.7 kmWSW (250°)20.4 km/hPartly Cloudy
2:20 PM15 °C9 °C67 %1009.1 hPa10 kmWSW (240°)22.2 km/hMostly Cloudy
2:50 PM15 °C9 °C67 %1009.1 hPa10 kmWSW (250°)22.2 km/hMostly Cloudy
3:20 PM15 °C9 °C67 %1009.1 hPa10 kmSW (230°)18.5 km/hMostly Cloudy
3:50 PM15 °C7 °C59 %1009.1 hPa10 kmSW (230°)16.7 km/hMostly Cloudy
4:20 PM15 °C7 °C59 %1009.1 hPa10 kmSSW (210°)20.4 km/hMostly Cloudy
4:50 PM15 °C6 °C55 %1009.1 hPa10 kmSW (220°)18.5 km/hMostly Cloudy
5:20 PM13 °C6 °C63 %1009.1 hPa10 kmSW (230°)20.4 km/hMostly Cloudy
5:50 PM12 °C5 °C62 %1009.1 hPa10 kmSW (220°)22.2 km/hMostly Cloudy
6:20 PM12 °C5 °C62 %1009.1 hPa10 kmSW (230°)14.8 km/hMostly Cloudy
6:50 PM11 °C5 °C67 %1009.1 hPa10 kmWSW (240°)22.2 km/hMostly Cloudy
7:20 PM11 °C4 °C62 %1009.1 hPa10 kmWSW (250°)18.5 km/hMostly Cloudy
7:50 PM11 °C0 °C47 %1009.1 hPa10 kmWest (270°)16.7 km/hMostly Cloudy
8:00 PM10.6 °C0 °C37 %1008.5 hPa9.7 kmWest (270°)16.7 km/hPartly Cloudy
8:20 PM10 °C1 °C54 %1009.1 hPa10 kmWest (260°)13 km/hMostly Cloudy
8:50 PM9 °C1 °C58 %1009.1 hPa10 kmWest (260°)16.7 km/hMostly Cloudy
9:20 PM8 °C1 °C62 %1009.1 hPa10 kmWest (260°)11.1 km/hMostly Cloudy
9:50 PM8 °C0 °C57 %1010.2 hPa10 kmNorth (10°)7.4 km/hMostly Cloudy
10:20 PM6 °C0 °C66 %1010.2 hPa10 kmWSW (250°)11.1 km/hMostly Cloudy
10:50 PM5 °C1 °C76 %1010.2 hPa10 kmWSW (250°)9.3 km/hMostly Cloudy
11:20 PM6 °C1 °C70 %1010.2 hPa10 kmWSW (250°)5.6 km/hMostly Cloudy
11:50 PM7 °C3 °C76 %1009.1 hPa10 kmSW (220°)7.4 km/hMostly Cloudy
Hourly data recorded from LTAJ, located 0 kilometers away from Gaziantep, Turkey







STORIES FROM OUR PARTNERS